DW9493 Weather Reports


Display with metric or nautical units.
time (UTC)temp
F
wind
direction
speed
MPH
gust
MPH
rain 1hr
in
rain 24hr
in
rain mn
in
humidity
%
barometer
mb
20260507230453 58 277 1.0 9.0 0.00 0.27 0.23 32 1017.8
20260507225453 56 240 3.0 8.0 0.00 0.27 0.23 34 1017.9
20260507224454 56 243 6.0 13.0 0.00 0.28 0.23 34 1017.9
20260507223452 56 234 6.0 11.0 0.00 0.28 0.23 33 1018.1
20260507222435 57 237 8.0 16.0 0.00 0.29 0.23 34 1018.1
20260507221431 56 188 5.0 13.0 0.00 0.30 0.23 34 1018.2
20260507220911 56 284 3.0 8.0 0.00 0.30 0.23 33 1018.1
20260507215432 56 297 5.0 17.0 0.00 0.31 0.23 34 1018.2
20260507214917 55 317 6.0 17.0 0.00 0.32 0.23 35 1018.4
20260507213431 56 248 2.0 8.0 0.00 0.32 0.23 34 1018.6
20260507212917 55 326 1.0 5.0 0.00 0.33 0.23 36 1018.7
20260507211429 54 241 1.0 4.0 0.00 0.34 0.23 38 1018.8
20260507210417 54 317 1.0 5.0 0.00 0.35 0.23 37 1019.1
20260507210340 54 12 1.0 6.0 0.00 0.35 0.23 36 1019.1
20260507204413 55 81 1.0 8.0 0.00 0.36 0.23 36 1019.0
20260507203413 54 333 4.0 17.0 0.00 0.36 0.23 36 1019.2
20260507202409 55 328 6.0 14.0 0.00 0.36 0.23 36 1019.2
20260507201903 55 219 3.0 9.0 0.00 0.36 0.23 35 1019.2
20260507200406 54 226 4.0 17.0 0.00 0.36 0.23 35 1019.3
20260507195407 54 252 5.0 12.0 0.00 0.36 0.23 37 1019.5
20260507194407 53 211 5.0 10.0 0.00 0.36 0.23 37 1019.6
20260507193407 54 190 3.0 9.0 0.00 0.36 0.23 36 1019.7
20260507192407 54 231 2.0 7.0 0.00 0.36 0.23 35 1019.7
20260507191409 55 242 5.0 18.0 0.00 0.36 0.23 37 1019.8
20260507190405 55 212 4.0 10.0 0.00 0.36 0.23 38 1019.6
20260507185405 55 264 7.0 22.0 0.01 0.36 0.23 36 1019.6
20260507184405 54 295 6.0 19.0 0.01 0.36 0.23 38 1019.7
20260507183406 53 256 5.0 13.0 0.01 0.36 0.23 39 1019.8
20260507182405 54 243 1.0 5.0 0.01 0.36 0.23 40 1020.0
20260507181405 53 345 1.0 5.0 0.02 0.36 0.23 40 1020.2
20260507180405 53 312 1.0 4.0 0.02 0.36 0.23 40 1020.1
20260507175351 52 102 1.0 5.0 0.01 0.35 0.22 41 1020.0
20260507174350 50 188 0.0 3.0 0.02 0.35 0.22 47 1020.2
20260507173351 49 132 0.0 2.0 0.02 0.35 0.22 48 1020.5
20260507172351 48 205 0.0 3.0 0.02 0.35 0.22 45 1020.5
20260507171826 49 207 1.0 5.0 0.02 0.34 0.21 46 1020.3
20260507170351 48 210 1.0 2.0 0.02 0.34 0.21 46 1020.3
20260507165354 47 142 1.0 4.0 0.03 0.34 0.21 51 1020.5
20260507164833 47 203 1.0 4.0 0.02 0.33 0.20 49 1020.3
20260507164308 48 203 1.0 3.0 0.03 0.33 0.20 49 1020.5
20260507162349 48 204 2.0 6.0 0.04 0.33 0.20 46 1020.8
20260507161834 47 243 7.0 17.0 0.04 0.32 0.19 45 1021.0
20260507160349 46 268 3.0 9.0 0.06 0.32 0.19 52 1020.8
20260507155829 47 202 2.0 6.0 0.06 0.31 0.18 49 1021.0
20260507154348 47 214 6.0 13.0 0.08 0.31 0.18 47 1021.1
20260507153343 47 259 8.0 16.0 0.10 0.30 0.17 48 1021.0
20260507152344 46 236 5.0 8.0 0.13 0.29 0.16 52 1021.0
20260507151820 47 267 5.0 10.0 0.15 0.28 0.15 51 1021.1
20260507150338 47 242 6.0 12.0 0.13 0.26 0.13 48 1020.8
20260507145339 48 262 6.0 12.0 0.12 0.25 0.12 48 1021.0
20260507144339 49 242 7.0 14.0 0.10 0.23 0.10 48 1020.8
20260507143334 49 249 7.0 13.0 0.07 0.20 0.07 49 1020.7
20260507142334 48 278 7.0 14.0 0.03 0.16 0.03 49 1020.7
20260507141333 47 247 6.0 13.0 0.00 0.13 0.00 51 1020.7
20260507140333 46 234 7.0 16.0 0.00 0.13 0.00 52 1020.7
20260507135333 46 250 8.0 14.0 0.00 0.13 0.00 50 1020.6
20260507134330 44 248 3.0 15.0 0.00 0.13 0.00 53 1021.0
20260507133331 43 320 1.0 5.0 0.00 0.13 0.00 55 1020.8
20260507132332 43 324 1.0 3.0 0.00 0.13 0.00 55 1020.8
20260507132250 42 308 1.0 5.0 0.00 0.13 0.00 56 1020.8
20260507130331 42 285 1.0 3.0 0.00 0.13 0.00 56 1020.8
20260507125332 40 245 1.0 3.0 0.00 0.13 0.00 58 1020.8
20260507124331 39 279 2.0 4.0 0.00 0.13 0.00 60 1020.7
20260507123813 38 239 3.0 7.0 0.00 0.13 0.00 60 1020.7
20260507122806 37 248 3.0 6.0 0.00 0.13 0.00 62 1020.8
20260507121330 36 255 3.0 5.0 0.00 0.13 0.00 63 1021.0
20260507120319 36 277 3.0 5.0 0.00 0.13 0.00 64 1021.0
20260507115313 36 238 3.0 6.0 0.00 0.13 0.00 62 1020.7
20260507114313 37 243 4.0 7.0 0.00 0.13 0.00 59 1020.7
20260507113313 38 240 6.0 11.0 0.00 0.13 0.00 57 1020.7
20260507112313 38 262 5.0 8.0 0.00 0.13 0.00 58 1020.7
20260507111313 37 264 5.0 9.0 0.00 0.13 0.00 59 1020.7
20260507110313 37 250 4.0 8.0 0.00 0.13 0.00 59 1020.7
20260507105312 36 225 3.0 6.0 0.00 0.13 0.00 61 1020.6
20260507104738 34 249 1.0 3.0 0.00 0.13 0.00 65 1020.6
20260507103259 32 246 0.0 2.0 0.00 0.13 0.00 71 1020.6
20260507102742 30 288 0.0 3.0 0.00 0.13 0.00 76 1020.6
20260507101258 30 325 0.0 3.0 0.00 0.13 0.00 74 1020.5
20260507100734 30 259 0.0 2.0 0.00 0.13 0.00 73 1020.5
20260507095256 32 206 0.0 2.0 0.00 0.13 0.00 68 1020.5
20260507094731 34 250 2.0 4.0 0.00 0.13 0.00 65 1020.5
20260507093246 35 218 1.0 6.0 0.00 0.13 0.00 62 1020.5
20260507092732 37 245 4.0 6.0 0.00 0.13 0.00 56 1020.6
20260507091721 38 246 4.0 7.0 0.00 0.13 0.00 53 1020.5
20260507090245 38 245 4.0 13.0 0.00 0.13 0.00 54 1020.5
20260507085722 36 245 2.0 8.0 0.00 0.13 0.00 59 1020.3
20260507084727 33 269 2.0 4.0 0.00 0.13 0.00 63 1020.3
20260507083242 32 222 1.0 4.0 0.00 0.13 0.00 64 1020.6
20260507082723 32 260 1.0 4.0 0.00 0.13 0.00 65 1020.7
20260507081244 31 246 1.0 5.0 0.00 0.13 0.00 64 1020.8
20260507080243 31 321 3.0 7.0 0.00 0.13 0.00 64 1020.8
20260507075243 30 206 0.0 2.0 0.00 0.13 0.00 63 1020.8
20260507074243 31 224 0.0 2.0 0.00 0.13 0.00 61 1021.0
20260507073708 33 173 1.0 3.0 0.00 0.13 0.00 54 1021.0
20260507072224 33 260 1.0 5.0 0.00 0.13 0.00 55 1021.0
20260507071225 33 222 1.0 3.0 0.00 0.13 0.00 55 1021.0
20260507070225 32 214 2.0 6.0 0.00 0.13 0.00 58 1021.0
20260507065225 32 300 2.0 7.0 0.00 0.13 0.00 59 1021.0
20260507065137 33 250 2.0 6.0 0.00 0.13 0.00 58 1020.8
20260507063222 32 269 1.0 4.0 0.00 0.13 0.00 62 1020.8
20260507062712 32 270 1.0 5.0 0.00 0.13 0.00 63 1020.7
20260507061224 32 267 3.0 8.0 0.00 0.13 0.00 62 1020.6
20260507060223 33 248 3.0 11.0 0.00 0.13 0.00 60 1020.5
20260507055223 33 257 5.0 16.0 0.00 0.13 0.13 59 1020.5
20260507054221 32 322 2.0 10.0 0.00 0.13 0.13 60 1020.3
20260507053221 32 310 1.0 8.0 0.00 0.13 0.13 62 1020.5
20260507052222 32 260 1.0 6.0 0.00 0.13 0.13 62 1020.6
20260507051216 32 324 0.0 4.0 0.00 0.13 0.13 61 1020.5
20260507050217 32 267 2.0 8.0 0.00 0.13 0.13 61 1020.5
20260507045217 31 240 1.0 4.0 0.00 0.13 0.13 63 1020.3
20260507044214 30 322 0.0 2.0 0.00 0.13 0.13 70 1020.2
20260507043213 31 150 0.0 2.0 0.00 0.13 0.13 68 1020.1
20260507042651 32 39 0.0 2.0 0.00 0.13 0.13 64 1020.1
20260507041210 33 1 4.0 12.0 0.00 0.13 0.13 58 1019.8
20260507040209 33 225 4.0 9.0 0.00 0.13 0.13 60 1019.8
20260507035645 33 311 4.0 14.0 0.00 0.13 0.13 61 1019.8
20260507034209 34 227 5.0 15.0 0.00 0.13 0.13 62 1019.6
20260507034121 34 270 3.0 15.0 0.00 0.13 0.13 64 1019.7
20260507032208 33 276 3.0 10.0 0.00 0.13 0.13 65 1019.7
20260507031207 33 249 3.0 11.0 0.00 0.13 0.13 68 1019.6
20260507030209 33 253 2.0 8.0 0.00 0.13 0.13 72 1019.6
20260507025204 31 214 1.0 7.0 0.00 0.13 0.13 78 1019.5
20260507024204 31 218 1.0 4.0 0.00 0.13 0.13 82 1019.3
20260507023205 29 204 0.0 6.0 0.00 0.13 0.13 91 1019.2
20260507022204 28 329 0.0 1.0 0.00 0.13 0.13 92 1019.1
20260507021647 29 211 0.0 1.0 0.01 0.13 0.13 91 1019.2
20260507020202 30 338 0.0 1.0 0.01 0.13 0.13 91 1019.1
20260507015203 30 337 0.0 2.0 0.01 0.13 0.13 90 1019.0
20260507014202 31 131 0.0 1.0 0.01 0.13 0.13 90 1019.1
20260507013201 32 112 0.0 1.0 0.01 0.13 0.13 90 1019.1
20260507012200 32 114 0.0 1.0 0.01 0.13 0.13 90 1019.1
20260507011200 32 114 0.0 1.0 0.01 0.12 0.12 90 1019.1
20260507010636 32 114 0.0 2.0 0.01 0.12 0.12 89 1019.1
20260507005159 33 53 0.0 3.0 0.01 0.12 0.12 89 1019.0
20260507004641 33 124 0.0 2.0 0.01 0.12 0.12 88 1019.1
20260507003200 33 118 0.0 2.0 0.02 0.12 0.12 88 1019.0
20260507002200 33 34 1.0 3.0 0.02 0.12 0.12 86 1019.1
20260507001200 34 179 0.0 2.0 0.01 0.11 0.11 86 1019.0
20260507000155 33 295 0.0 1.0 0.02 0.11 0.11 87 1019.1
20260506235146 33 106 1.0 3.0 0.02 0.11 0.11 87 1019.0
20260506234141 33 43 1.0 4.0 0.03 0.11 0.11 85 1019.0
20260506233141 33 56 1.0 4.0 0.03 0.10 0.10 87 1019.0
20260506232142 32 14 2.0 6.0 0.03 0.10 0.10 85 1019.0
20260506231141 33 33 1.0 5.0 0.04 0.10 0.10 84 1019.0